Current weather by "City, St" or "zip code"  
 
Advertise Here

Current Conditions: Fort Huachuca, Libby AAF Ft Huachuca, AZ

Fair


53.0 F

Last Updated on Jan 17 2021, 7:58 pm MST
Humidity: 9%
Wind Speed: SW 10.4 mph
Barometer 30.09 in
Dewpoint: -4.2 F
Visibility: 10.00 mi
Precip: --
Heat Index: NA
Wind Chill: 50 F
Current conditions at:

Fort Huachuca, Libby AAF Ft Huachuca, AZ (KFHU)

Lat: 31.58333 Lon: 110.33333

Local Radar Image active severe weather and emergency alerts image image weather storm and storm spotter reports image weather observation monitoring service image
Local
Radar
Active
Alerts
Storm Reports Obs
Monitoring

Sign-up For Email & Text Message Weather Alert Notification Services


Advertise Here

Observation History for Fort Huachuca, Libby AAF Ft Huachuca, AZ


Time Wind
(mph)
Vis
(mi)
Weather Precip (in) Temperature (F) Relative
Humidity
Wind
Chill
(F)
Heat
Index
(F)
Pressure
Air Dwpt altimeter
(in)
sea level
(mb)
Rmks
7:58 pm MST SW 10.4 10.00 Fair -- 53.0 -4.2 9% 50 NA 30.09 1016.3
6:58 pm MST W 8.1 10.00 Fair -- 56.0 -6.3 7% 54 NA 30.10 1016.7
5:58 pm MST SW 8.1 10.00 Fair -- 56.0 -2.2 9% 54 NA 30.09 1015.9
4:58 pm MST SE 3.5 10.00 Fair -- 69.0 -9.2 4% NA NA 30.09 1014.9
3:58 pm MST N 0.0 10.00 Fair -- 72.0 -7.4 4% NA NA 30.10 1015.6
2:58 pm MST SE 4.6 10.00 Fair -- 71.0 -3.6 5% NA NA 30.11 1015.3
1:58 pm MST N 0.0 10.00 Fair -- 69.0 -1.3 6% NA NA 30.13 1015.6
12:58 pm MST N 0.0 10.00 Fair -- 68.0 -1.5 6% NA NA 30.14 1016.7
11:58 am MST SE 8.1 10.00 Fair -- 65.0 3.0 8% NA NA 30.18 1017.4
10:58 am MST SE 5.8 10.00 Fair -- 64.0 5.4 10% NA NA 30.20 1018.4
9:58 am MST NE 3.5 10.00 Fair -- 56.0 7.5 14% NA NA 30.21 1019.4
8:58 am MST NE 3.5 10.00 Fair -- 50.0 6.6 17% NA NA 30.20 1019.8
7:58 am MST E 3.5 10.00 Fair -- 41.0 6.3 23% NA NA 30.20 1020.1
6:58 am MST E 4.6 10.00 Fair -- 42.0 7.5 24% 39 NA 30.20 1020.1
5:58 am MST N 0.0 10.00 Fair -- 42.0 7.3 24% NA NA 30.20 1019.4
4:58 am MST N 0.0 10.00 Fair -- 43.0 8.2 24% NA NA 30.18 1018.1
3:58 am MST N 0.0 9.00 Fair -- 36.0 7.7 31% NA NA 30.18 1018.1
2:58 am MST N 0.0 9.00 Fair -- 45.0 8.2 22% NA NA 30.17 1016.7
1:58 am MST N 0.0 10.00 Fair -- 46.0 7.9 21% NA NA 30.15 1016.0
12:58 am MST N 0.0 10.00 Fair -- 42.0 7.3 23% NA NA 30.15 1016.3
11:58 pm MST N 0.0 10.00 Fair -- 46.0 7.9 21% NA NA 30.16 1016.3
10:58 pm MST SE 4.6 10.00 Fair -- 50.0 5.5 16% 48 NA 30.17 1017.4
9:58 pm MST SE 3.5 10.00 Fair -- 47.0 3.0 16% NA NA 30.17 1018.1
8:58 pm MST W 5.8 10.00 Fair -- 50.0 0.7 13% 48 NA 30.14 1016.7

Regional Weather Observation


Fort Huachuca, Libby AAF Ft Huachuca, AZ (KFHU)

Fair
53.0 F

Nogales, Nogales International Airport, AZ (KOLS)

Fair
53.0 F

Tucson, Tucson International Airport, AZ (KTUS)

Fair
62.0 F

Davis-Monthan Air Force Base, AZ (KDMA)

Fair
57.0 F

Tucson Ryan Field Airport, AZ (KRYN)

Fair
57.0 F

Bisbee Douglas International Airport, AZ (KDUG)

Mostly Cloudy
76.0 F